Regional Weather Roundup
Issued by NWS

Home | Current Version | Previous Version | Text Only | Print | Product List | Glossary Off
Versions: 1 2 3 4 5 6 7 8 9 10 11 12 13 14 15 16 17 18 19 20 21 22 23 24 25 26 27 28

000
ASUS45 KCYS 200010
RWRWY

WYOMING REGIONAL WEATHER ROUNDUP
NATIONAL WEATHER SERVICE CHEYENNE WY
600 PM MDT SAT APR 19 2014

NOTE:  "FAIR" INDICATES FEW OR NO CLOUDS BELOW 12,000 FEET
WITH NO SIGNIFICANT WEATHER AND/OR OBSTRUCTIONS TO VISIBILITY.

WYZ001-200100-
YELLOWSTONE NATIONAL PARK

CITY           SKY/WX    TMP DP  RH WIND       PRES   REMARKS
LK YELLOWSTONE   N/A     48  13  24 VRB5G20   30.08S
6HR MIN TEMP:  43; 6HR MAX TEMP:  49;

W YELLOWSTONE  NOT AVBL

$$
WYZ002>013-054>058-071-098>099-200100-
NORTHERN WYOMING

CITY           SKY/WX    TMP DP  RH WIND       PRES   REMARKS
JACKSON        SUNNY     57  19  23 S18       30.02S
CODY           SUNNY     64  18  16 W9        29.92S
GREYBULL       MOSUNNY   67  18  15 S9        29.89F
6HR MIN TEMP:  55; 6HR MAX TEMP:  68;

WORLAND        MOSUNNY   67  23  19 NE8       29.90S
6HR MIN TEMP:  53; 6HR MAX TEMP:  68;

SHERIDAN         N/A     57  32  38 SW12G21     N/A
6HR MIN TEMP:  54; 6HR MAX TEMP:  66;

BUFFALO        MOSUNNY   61  28  28 N14       29.95R
6HR MIN TEMP:  53; 6HR MAX TEMP:  65;

GILLETTE       MOSUNNY   62  28  27 S14       29.95R
6HR MIN TEMP:  53; 6HR MAX TEMP:  63;

HULETT         FAIR      61  23  23 SW3       29.99
NEWCASTLE      FAIR      61  23  23 MISG      30.00

$$
WYZ014>020-022>026-101>103-200100-
CENTRAL WYOMING

CITY           SKY/WX    TMP DP  RH WIND       PRES   REMARKS
BIG PINEY      MOSUNNY   58  19  22 SW12      30.06S
6HR MIN TEMP:  51; 6HR MAX TEMP:  63;

PINEDALE       PTCLDY    54  21  28 NW12G17   30.08R
DUBOIS         FAIR      54  12  19 W20G29    30.02S
LANDER         CLOUDY    63  24  22 SE6       29.94S
6HR MIN TEMP:  57; 6HR MAX TEMP:  65;

RIVERTON       PTSUNNY   65  12  12 NW17      29.95R
6HR MIN TEMP:  56; 6HR MAX TEMP:  69;

CASPER         MOSUNNY   66  22  18 W14       29.95R
6HR MIN TEMP:  56; 6HR MAX TEMP:  70;

DOUGLAS        MOSUNNY   62  40  44 SE18      29.96F
6HR MIN TEMP:  53; 6HR MAX TEMP:  63;


$$
WYZ021-027>030-104>119-200100-
SOUTHERN WYOMING

CITY           SKY/WX    TMP DP  RH WIND       PRES   REMARKS
EVANSTON       PTSUNNY   59  31  34 W16       30.08R
6HR MIN TEMP:  55; 6HR MAX TEMP:  63;

KEMMERER       MOCLDY    55  30  38 W14G28    30.08S
FORT BRIDGER   FAIR      63  31  30 W17G23    30.09R
ROCK SPRINGS   PTSUNNY   63  29  27 W8        30.04R
6HR MIN TEMP:  58; 6HR MAX TEMP:  66;

DIXON          FAIR      59  37  42 SW6       30.10S
RAWLINS        MOSUNNY   60  30  32 SW15      30.04S
6HR MIN TEMP:  50; 6HR MAX TEMP:  61; 6HR PCP:  0.04;

SARATOGA       CLOUDY    54  32  43 SW18      30.08F
LARAMIE        CLOUDY    59  30  33 N10       30.06R
6HR MIN TEMP:  53; 6HR MAX TEMP:  59;

CHEYENNE       MOSUNNY   60  36  40 S16       30.04R
6HR MIN TEMP:  55; 6HR MAX TEMP:  63;

TORRINGTON     PTSUNNY   66  37  34 SE14      29.97S
6HR MIN TEMP:  53; 6HR MAX TEMP:  66;

PINE BLUFFS    FAIR      63  36  36 S8        30.03R

$$



USA.gov is the U.S. government's official web portal to all federal, state and local government web resources and services.